Location: Horowhenua
(40.7500°S, 175.3333°E)
Time: 05:49:11
(UTC+00:00)

Cosmos 1484 Rocket - Pass Details

Date: 28 January 2023
Orbit: 495 x 546 km, 97.5° (Epoch: 01 April)

Event Time Altitude Azimuth Distance (km) Brightness Sun altitude
Exits shadow 16:23:57 13° 325° (NW) 1,553 4.5 -10.2°
Maximum altitude 16:26:28 24° 275° (W) 1,096 3.9 -9.8°
Drops below altitude 10° 16:29:32 10° 220° (SW) 1,734 5.3 -9.3°
Sets 16:31:56 0° 206° (SSW) 2,625 6.4 -9.0°
